Wind_Speed
29 27 25 25 24 21 18 15 14 13 12 11 10 8 6 6 6 6 5 3 1 2 3 3 4 2 1 2 5 6 8 8 5 4 4 5 5 5 7 9 11 13 15
25 29 27 27 26 24 22 19 18 16 15 14 13 11 8 7 7 7 7 6 4 3 3 3 4 4 2 1 4 7 8 6 3 3 4 3 4 5 7 10 12 14 15
30 29 32 31 30 28 25 22 21 19 17 17 16 14 11 10 10 9 9 8 6 5 4 3 3 4 2 1 5 7 7 5 2 2 2 3 3 5 8 11 13 14 16
21 30 33 34 33 30 30 27 24 22 21 19 19 17 15 13 12 11 10 10 9 8 5 4 3 2 2 2 5 6 6 4 2 2 2 2 2 5 8 11 13 15 17
10 21 34 33 36 32 32 30 29 25 24 22 21 20 18 16 13 14 13 11 11 10 8 6 4 3 2 3 6 7 6 3 1 1 1 1 3 5 8 11 13 15 16
15 10 23 34 38 41 35 33 32 30 27 25 23 22 21 20 16 17 16 14 13 12 10 7 5 5 4 4 6 7 7 4 2 1 0 1 3 6 9 11 13 15 17
21 19 18 22 40 43 39 36 35 33 30 27 26 25 24 22 20 17 17 16 16 14 11 9 7 7 6 6 7 8 8 6 4 3 2 3 5 6 9 11 13 15 17
27 23 18 19 28 43 45 41 39 36 34 31 29 28 26 25 23 20 18 17 16 14 12 11 9 8 9 8 9 10 10 9 7 6 5 5 7 8 10 12 14 16 17
30 27 26 23 22 36 47 45 45 41 38 35 33 31 29 27 25 23 19 19 16 15 13 12 12 10 10 11 10 10 12 12 11 9 8 8 9 10 11 13 15 17 18
33 30 29 28 25 29 40 49 47 46 42 39 37 33 33 30 26 24 20 19 17 16 14 14 14 12 12 13 12 12 13 13 13 11 10 11 11 12 13 14 15 18 19
40 36 34 30 29 25 41 49 49 49 46 43 40 37 34 33 29 26 23 21 20 19 17 16 16 15 13 14 14 14 14 13 14 14 13 12 12 13 14 15 17 19 20
45 43 38 34 32 29 29 47 51 49 49 47 42 40 37 34 32 32 28 24 24 22 20 18 18 16 15 16 15 15 14 15 14 14 13 13 13 14 15 17 19 21 22
50 46 44 39 39 41 33 36 48 51 50 49 47 43 41 37 35 34 32 28 26 25 23 21 20 18 17 17 17 16 16 16 15 14 14 14 15 16 18 19 21 22 23
52 50 49 44 43 39 40 35 39 51 57 50 50 47 44 39 35 36 34 31 29 27 25 23 22 20 19 19 18 17 17 17 16 15 15 15 17 18 20 21 22 24 23
58 56 52 51 47 45 38 38 39 43 58 60 54 52 47 41 38 37 36 34 31 29 26 25 23 22 21 21 20 19 18 18 18 17 17 17 19 20 20 21 22 23 24
67 60 57 54 54 51 46 43 40 40 47 61 59 56 51 45 41 39 38 37 33 30 28 26 25 24 23 22 22 21 19 19 20 19 19 21 21 21 20 21 23 23 24
70 68 63 57 57 57 54 45 44 42 44 53 63 60 55 50 45 41 40 38 35 31 29 28 26 25 25 24 23 22 21 21 22 22 22 22 22 22 22 21 22 24 24
76 74 72 66 63 61 57 48 52 53 56 51 62 64 59 53 47 46 43 40 36 32 31 30 29 27 26 26 25 24 23 24 24 24 23 23 22 22 22 22 23 25 27
82 81 76 74 70 66 64 61 61 58 45 57 54 56 63 58 50 49 46 42 37 33 33 32 31 30 28 27 26 26 25 25 25 25 24 24 23 20 21 24 24 27 22
88 86 82 80 78 74 70 63 61 58 60 57 65 66 62 59 54 53 49 45 38 35 35 33 32 32 30 28 27 27 27 26 25 25 23 24 22 23 23 25 27 17 16
91 92 88 87 85 82 78 73 66 62 54 65 66 71 67 70 60 56 51 46 40 38 35 36 34 33 32 30 28 28 28 26 26 25 24 24 21 20 25 28 19 18 16
98 99 96 93 91 88 86 82 75 63 61 74 54 55 59 67 60 57 52 45 41 41 39 36 36 36 33 31 30 29 27 28 28 28 26 25 23 24 24 17 16 16 14
108 107 106 101 97 95 93 89 82 69 68 69 72 55 47 67 56 57 53 46 45 45 39 39 39 37 35 33 33 29 27 32 29 29 29 26 25 26 20 17 16 16 16
75 89 95 96 99 98 94 93 85 76 66 64 67 68 69 67 61 59 52 48 47 46 44 42 41 39 37 35 34 31 31 34 31 30 30 32 31 20 18 20 18 15 12
42 50 63 73 79 89 92 82 73 67 55 63 69 67 49 62 60 56 54 51 51 48 46 44 42 39 37 39 38 36 37 33 34 32 36 37 27 23 26 22 22 19 14
37 43 53 59 67 69 72 65 60 57 59 56 59 84 70 66 66 60 57 55 53 50 48 45 42 43 44 44 42 37 41 35 37 37 39 34 30 27 28 26 26 22 17
Wind_Direction
220 224 222 231 223 216 214 216 222 226 224 227 236 242 249 254 269 257 231 224 218 337 347 12 10 15 86 141 151 150 142 137 124 72 47 50 49 48 33 19 15 13 13
220 225 224 228 229 222 220 215 223 224 228 227 233 237 233 250 252 251 229 222 228 272 307 348 7 359 23 142 152 150 148 144 121 74 59 54 51 40 23 13 10 9 11
232 229 226 221 225 224 223 221 225 228 228 231 232 233 233 235 245 246 235 227 228 249 270 314 337 359 6 188 167 161 157 157 129 82 81 68 49 33 17 8 5 8 9
233 226 221 226 222 222 222 225 226 231 232 230 234 233 234 226 244 243 238 236 232 239 249 266 295 336 328 245 189 176 179 176 149 100 76 68 37 21 9 5 4 7 6
241 226 227 236 232 224 227 224 230 231 236 237 232 233 233 231 234 245 243 236 234 241 243 244 254 258 285 246 208 199 196 208 199 111 65 44 10 4 358 359 360 4 1
234 228 223 233 235 231 226 226 228 232 234 239 238 235 232 234 222 241 243 235 238 240 240 237 240 245 243 257 231 215 214 223 228 269 34 15 337 347 347 352 355 355 354
231 233 231 235 235 236 229 230 227 230 234 238 242 238 235 232 231 230 241 238 240 239 236 235 235 242 240 249 238 224 224 233 241 257 284 306 318 330 336 340 345 346 346
242 237 243 242 237 231 235 233 232 229 233 236 242 239 238 236 232 227 235 238 238 239 239 241 240 240 243 244 240 230 230 236 246 254 273 290 302 315 325 331 334 337 336
242 239 247 248 247 238 230 231 230 230 231 235 238 240 239 239 235 229 230 235 234 239 244 248 249 245 248 248 246 236 237 239 248 261 275 285 297 308 317 322 325 325 330
244 241 244 247 249 245 234 229 229 230 227 232 236 240 238 239 237 234 227 231 233 238 245 255 257 253 253 252 251 246 242 246 254 261 270 280 291 300 308 313 317 321 325
247 245 242 247 238 246 238 232 235 234 232 228 232 237 239 237 238 234 229 232 234 241 245 250 254 253 253 254 254 252 249 251 258 263 270 279 291 300 306 312 317 319 319
246 246 245 245 242 240 243 239 237 233 230 232 230 235 240 238 238 236 237 237 238 242 245 247 251 250 249 252 252 256 255 257 261 268 275 284 295 300 305 310 311 313 317
246 245 249 244 249 247 245 245 241 234 233 230 230 232 237 238 238 238 237 240 243 241 242 244 248 247 249 250 251 254 256 258 262 269 279 288 293 297 303 306 310 313 316
242 243 245 247 247 246 256 251 247 245 239 235 232 231 235 238 238 240 238 237 241 241 240 244 245 246 247 249 251 251 256 260 266 272 276 284 290 297 300 307 312 313 315
240 239 239 242 244 248 243 246 253 249 242 241 232 231 233 235 236 238 239 238 240 242 241 242 243 245 246 251 254 254 257 261 267 273 277 282 287 293 299 306 308 310 315
245 240 240 241 244 244 246 247 249 247 248 237 235 231 231 234 235 236 238 239 241 242 242 242 240 244 247 250 252 254 257 263 268 272 278 285 288 293 300 305 306 309 316
243 245 243 242 243 248 248 247 254 247 245 247 233 231 230 233 235 235 236 238 239 241 242 243 240 242 245 247 252 256 260 263 266 273 279 283 288 294 298 303 303 307 316
242 240 241 241 242 244 248 251 230 257 240 242 240 234 233 231 234 235 235 237 238 239 240 241 242 241 245 247 250 256 258 264 270 275 277 283 289 295 299 298 304 309 313
240 240 239 241 242 242 242 241 239 251 233 239 231 233 232 230 230 234 234 235 235 236 239 240 242 242 244 248 251 255 258 262 268 273 279 286 290 291 292 301 307 312 315
242 240 238 238 241 242 242 241 238 239 249 241 234 231 231 229 229 232 232 233 233 233 237 241 243 244 246 249 252 255 259 264 267 271 278 280 284 288 292 302 308 307 311
238 239 236 237 237 240 242 241 240 242 248 238 236 231 235 229 225 228 229 230 231 234 235 238 242 244 247 250 253 256 261 264 267 272 273 277 279 291 298 302 295 297 294
238 237 236 234 236 238 240 243 243 243 239 233 230 219 231 221 221 225 226 228 229 232 234 238 242 245 249 251 252 255 258 264 266 268 270 270 274 294 292 278 284 273 275
239 237 238 235 235 235 237 240 241 240 231 231 229 227 218 221 213 222 224 224 226 231 232 236 240 244 247 249 251 254 260 262 262 266 269 265 282 295 275 254 245 260 274
234 234 235 235 234 234 236 238 240 241 230 231 234 233 236 221 214 218 223 222 225 229 231 235 239 243 246 248 252 251 255 262 260 262 264 269 284 269 246 245 249 262 263
220 220 221 223 225 228 230 232 232 232 225 223 229 215 221 224 213 216 221 221 225 228 232 236 239 242 247 251 249 249 258 258 260 258 255 273 271 261 240 237 247 252 251
218 225 221 216 211 209 214 212 211 212 223 220 223 223 237 210 215 217 219 221 225 227 232 236 237 241 247 248 248 250 256 252 257 254 263 272 262 238 230 240 244 244 252
Height
5861 5864 5868 5873 5876 5877 5877 5879 5881 5882 5884 5885 5886 5887 5888 5889 5891 5891 5891 5892 5892 5892 5892 5891 5890 5890 5889 5888 5888 5888 5888 5888 5887 5887 5886 5885 5885 5884 5883 5882 5881 5880 5879
5859 5861 5863 5869 5873 5876 5877 5877 5879 5880 5882 5884 5885 5887 5887 5889 5890 5890 5891 5891 5892 5892 5892 5892 5891 5891 5890 5890 5889 5888 5888 5888 5888 5887 5886 5886 5885 5885 5884 5883 5882 5881 5879
5856 5857 5859 5863 5868 5872 5875 5876 5877 5879 5879 5881 5883 5885 5886 5887 5890 5889 5890 5890 5890 5891 5891 5891 5892 5891 5890 5890 5889 5890 5889 5889 5888 5887 5887 5886 5886 5885 5885 5884 5883 5881 5880
5851 5854 5856 5860 5863 5867 5871 5874 5875 5878 5879 5879 5881 5883 5884 5885 5888 5888 5889 5890 5890 5890 5891 5891 5891 5892 5891 5890 5890 5890 5890 5889 5889 5888 5887 5887 5887 5886 5885 5884 5883 5881 5880
5846 5849 5854 5856 5860 5863 5867 5871 5873 5874 5877 5878 5878 5881 5882 5884 5885 5887 5888 5889 5889 5889 5890 5890 5891 5891 5891 5891 5890 5890 5890 5890 5890 5889 5888 5888 5887 5886 5885 5884 5883 5881 5879
5843 5845 5848 5852 5854 5858 5862 5866 5870 5872 5873 5877 5877 5878 5880 5882 5882 5885 5886 5887 5888 5888 5889 5889 5890 5890 5890 5890 5890 5890 5890 5890 5890 5889 5888 5888 5887 5886 5885 5884 5883 5881 5879
5839 5841 5844 5846 5849 5852 5856 5861 5865 5869 5871 5873 5875 5876 5878 5879 5881 5882 5884 5885 5886 5887 5887 5888 5888 5889 5889 5889 5889 5890 5890 5890 5889 5889 5887 5887 5886 5886 5885 5884 5882 5881 5879
5835 5836 5838 5841 5842 5845 5851 5855 5860 5864 5867 5869 5872 5874 5876 5878 5879 5880 5881 5883 5884 5886 5886 5887 5887 5888 5888 5888 5888 5888 5889 5889 5888 5888 5887 5887 5885 5885 5884 5883 5882 5879 5877
5828 5830 5832 5835 5836 5839 5844 5848 5853 5858 5861 5864 5866 5870 5873 5875 5877 5877 5879 5881 5882 5884 5885 5886 5887 5886 5887 5887 5887 5887 5887 5887 5887 5886 5886 5885 5885 5884 5883 5882 5880 5878 5876
5821 5823 5825 5830 5832 5834 5837 5841 5845 5851 5854 5858 5862 5866 5869 5871 5875 5876 5877 5879 5880 5882 5883 5885 5886 5886 5886 5886 5886 5886 5886 5886 5886 5885 5884 5883 5883 5882 5881 5880 5878 5876 5874
5814 5816 5819 5823 5826 5828 5831 5835 5838 5844 5849 5851 5856 5861 5864 5869 5872 5874 5874 5876 5878 5879 5881 5882 5883 5884 5884 5884 5885 5885 5884 5884 5884 5884 5882 5882 5881 5881 5880 5879 5877 5874 5872
5805 5809 5812 5815 5818 5821 5823 5827 5832 5837 5841 5846 5849 5855 5859 5863 5867 5869 5871 5873 5875 5876 5878 5880 5880 5881 5882 5881 5882 5883 5883 5883 5882 5882 5882 5881 5880 5880 5878 5877 5875 5872 5869
5796 5802 5805 5808 5811 5813 5816 5821 5825 5830 5835 5839 5842 5848 5852 5857 5863 5865 5867 5870 5871 5873 5875 5877 5878 5879 5879 5879 5880 5881 5881 5881 5880 5880 5880 5879 5878 5877 5876 5874 5872 5870 5867
5787 5792 5796 5800 5804 5804 5807 5812 5817 5822 5827 5833 5837 5842 5846 5852 5857 5860 5863 5865 5866 5868 5870 5874 5875 5876 5876 5877 5877 5878 5878 5879 5878 5878 5877 5876 5875 5874 5872 5871 5869 5867 5864
5772 5778 5786 5791 5796 5797 5800 5804 5809 5814 5819 5825 5830 5834 5839 5846 5850 5854 5858 5860 5862 5865 5867 5869 5871 5873 5873 5874 5875 5875 5876 5876 5876 5876 5875 5873 5872 5870 5869 5867 5865 5863 5861
5755 5765 5771 5778 5783 5788 5792 5796 5801 5807 5811 5816 5822 5826 5833 5839 5844 5847 5852 5854 5858 5860 5863 5865 5866 5868 5869 5871 5871 5871 5873 5873 5873 5872 5872 5871 5869 5867 5865 5864 5862 5860 5858
5743 5749 5758 5765 5772 5776 5782 5787 5791 5799 5803 5807 5813 5818 5825 5831 5837 5841 5845 5849 5852 5855 5858 5861 5862 5863 5865 5866 5868 5869 5869 5869 5869 5868 5868 5867 5865 5864 5862 5859 5858 5856 5855
5726 5734 5740 5749 5758 5764 5770 5778 5768 5785 5793 5799 5803 5810 5817 5824 5831 5834 5838 5843 5846 5851 5853 5855 5857 5858 5860 5862 5863 5865 5865 5864 5865 5865 5864 5863 5862 5861 5859 5856 5854 5853 5852
5704 5715 5726 5733 5743 5750 5757 5765 5772 5776 5779 5789 5794 5799 5809 5817 5824 5827 5832 5836 5840 5844 5847 5850 5852 5853 5854 5857 5859 5859 5860 5860 5861 5860 5860 5858 5856 5856 5854 5853 5851 5849 5848
5685 5695 5709 5717 5726 5735 5742 5750 5757 5764 5772 5779 5784 5791 5800 5807 5815 5819 5824 5830 5835 5838 5840 5845 5846 5847 5849 5852 5854 5855 5855 5856 5856 5856 5856 5853 5852 5852 5850 5848 5847 5846 5846
5666 5671 5689 5699 5709 5718 5726 5735 5744 5755 5761 5767 5773 5782 5788 5797 5806 5810 5817 5823 5829 5832 5834 5837 5840 5842 5844 5847 5849 5849 5851 5851 5851 5851 5850 5849 5848 5846 5846 5843 5842 5842 5841
5643 5649 5664 5680 5690 5701 5710 5720 5730 5740 5749 5757 5763 5772 5776 5786 5795 5802 5808 5818 5823 5823 5826 5831 5834 5836 5839 5842 5843 5844 5845 5845 5845 5845 5845 5844 5844 5841 5841 5839 5838 5837 5836
5609 5626 5636 5656 5672 5681 5693 5702 5715 5727 5735 5744 5753 5766 5764 5777 5787 5793 5801 5809 5813 5814 5820 5824 5827 5829 5833 5835 5836 5839 5839 5839 5839 5838 5838 5839 5837 5837 5837 5836 5834 5833 5832
5580 5596 5610 5627 5643 5660 5675 5689 5703 5717 5728 5736 5744 5756 5765 5771 5778 5786 5792 5800 5804 5807 5812 5816 5819 5822 5825 5828 5830 5832 5831 5832 5832 5832 5832 5831 5832 5830 5831 5830 5830 5830 5828
5568 5578 5589 5600 5618 5640 5658 5677 5692 5705 5717 5728 5735 5744 5749 5762 5770 5776 5783 5790 5794 5800 5804 5809 5812 5815 5818 5821 5822 5823 5823 5825 5825 5826 5825 5825 5824 5824 5824 5824 5825 5825 5823
5562 5568 5576 5588 5604 5624 5646 5668 5684 5697 5707 5717 5724 5737 5745 5752 5759 5767 5773 5780 5786 5792 5796 5801 5803 5805 5809 5812 5813 5815 5814 5817 5817 5818 5817 5816 5815 5816 5818 5819 5819 5820 5819